Starlink 30355

operational
NORAD ID: 57777 Int'l Des: 2023-134 Owner: SPXS Country: US Constellation: starlink
LEOCIRCULAR

Über Starlink 30355

Beschreibung wird geladen...

Live-Position

3D-Globus wird geladen...

Nächste Überflüge

Höhenverlauf

Altitude vs Time

uPlot chart will show altitude changes over time

Zweizeiliger Elementsatz

1 57777U 23134G 25352.81125879 .00006125 00000-0 46803-3 0 9992
2 57777 43.0027 277.0735 0001128 258.6516 101.4200 15.02542856127294
Epoch: 18. Dez. 2025 • Age: 14 hours

Aktueller Status

Höhe 561.9 km
Geschwindigkeit 7.58 km/s
Subsatellitenpunkt -15.66°S, 22.3°E
Startdatum 4. Sept. 2023
Alter 2.2 years
Typ internet

Technische Details

Klassifizierung Payload
Masse 730.00 kg
Trockenmasse 700.00 kg
Gesamtmasse 730.00 kg
Länge 0.30 m
Durchmesser 4.10 m
Spannweite 29.00 m
Form Box + pan
Hersteller SPXS
Bus-Typ Starlink V2M
Phasenstatus In Orbit
Besitzer/Staat SPXS/US

Große Konstellationen

Loading constellations...